Regional Weather Roundup
Issued by NWS

Home | Current Version | Previous Version | Text Only | Print | Product List | Glossary Off
Versions: 1 2 3 4 5 6 7 8 9 10 11 12 13 14 15 16 17 18 19 20 21 22 23 24 25 26 27 28 29 30 31 32 33 34 35 36 37 38 39 40 41 42 43 44 45 46 47 48 49 50

000
ASUS45 KCYS 270110
RWRWY

WYOMING REGIONAL WEATHER ROUNDUP
NATIONAL WEATHER SERVICE CHEYENNE WY
700 PM MDT WED APR 26 2017

NOTE:  "FAIR" INDICATES FEW OR NO CLOUDS BELOW 12,000 FEET
WITH NO SIGNIFICANT WEATHER AND/OR OBSTRUCTIONS TO VISIBILITY.

WYZ001-270200-
YELLOWSTONE NATIONAL PARK

CITY           SKY/WX    TMP DP  RH WIND       PRES   REMARKS
LK YELLOWSTONE   N/A     29  28  96 W5        29.70F WCI  24
W YELLOWSTONE  NOT AVBL

$$
WYZ002>013-054>058-071-098>099-270200-
NORTHERN WYOMING

CITY           SKY/WX    TMP DP  RH WIND       PRES   REMARKS
JACKSON        FLURRIES  36  34  93 S10         N/A  WCI  28
CODY           FAIR      52  28  39 W9G22     29.60F
GREYBULL       FAIR      52  34  50 SE7       29.60F
WORLAND        FAIR      47  39  74 E13       29.62F
SHERIDAN       FAIR      36  30  79 S3        29.67F
BUFFALO        CLOUDY    38  32  79 CALM      29.68S
GILLETTE       FAIR      43  31  62 NE6       29.66F
HULETT         FAIR      37  32  81 NE7       29.69F WCI  32
NEWCASTLE      FAIR      50  28  43 N10       29.65F

$$
WYZ014>020-022>026-101>103-270200-
CENTRAL WYOMING

CITY           SKY/WX    TMP DP  RH WIND       PRES   REMARKS
BIG PINEY      CLOUDY    42  29  59 W17       29.72S
PINEDALE       MOCLDY    41  28  60 NW7       29.72F
DUBOIS         CLOUDY    41  21  45 NW10      29.65F
LANDER         FAIR      49  30  48 N5        29.62S
RIVERTON       FAIR      50  25  37 W6        29.63S
CASPER         PTSUNNY   47  31  53 S13       29.64R
DOUGLAS        CLOUDY    50  28  42 N5        29.65S

$$
WYZ021-027>030-104>119-270200-
SOUTHERN WYOMING

CITY           SKY/WX    TMP DP  RH WIND       PRES   REMARKS
EVANSTON       LGT RAIN  38  33  82 SW16      29.77F WCI  29
KEMMERER         N/A     37  32  81 SW16      29.75F WCI  28
FORT BRIDGER   CLOUDY    42  32  67 W14G20    29.79F
ROCK SPRINGS   CLOUDY    44  26  49 W20G25    29.74S
DIXON            N/A     42  33  72 NW10      29.77R
RAWLINS        LGT RAIN  39  31  72 W26G35    29.71S WCI  28
SARATOGA       FAIR      37  34  87 SW15G21   29.74S WCI  28
LARAMIE        CLOUDY    40  28  62 W16       29.71S WCI  31
CHEYENNE       FAIR      47  29  49 NW9       29.70S
TORRINGTON     MOCLDY    48  38  68 NE8       29.65F
PINE BLUFFS    CLOUDY    46  36  66 NE6       29.70R

$$



USA.gov is the U.S. government's official web portal to all federal, state and local government web resources and services.